Location: Wells
(51.2093°N, 2.6446°W)
Time: 17:59:17
(UTC+00:00)

PCSat - Visible Passes

Search period start: 09 March 2026 00:00
Search period end: 19 March 2026 00:00
Orbit: 780 x 790 km, 67.1° (Epoch: 9 March)

Date Brightness Start Highest point End Pass type
(mag) Time Alt. Az. Time Alt. Az. Time Alt. Az.
9 Mar 11.7 02:01:11 22° NNE 02:01:11 22° NNE 02:03:22 10° NNE visible
9 Mar 11.6 03:41:46 15° NNW 03:43:18 17° NNW 03:46:42 10° NNE visible
9 Mar 11.9 05:25:20 10° NNW 05:28:46 17° NNE 05:32:13 10° NE visible
10 Mar 11.9 01:29:27 19° NNE 01:29:27 19° NNE 01:31:04 10° NNE visible
10 Mar 11.6 03:10:03 18° NNW 03:10:35 18° NNW 03:14:15 10° NNE visible
10 Mar 11.9 04:52:49 10° NNW 04:56:03 16° N 04:59:16 10° NE visible
11 Mar 12.1 00:57:43 16° NNE 00:57:43 16° NNE 00:58:45 10° NNE visible
11 Mar 11.6 02:38:18 20° NNW 02:38:18 20° NNW 02:41:52 10° NNE visible
11 Mar 11.9 04:20:13 10° NNW 04:23:19 15° N 04:26:24 10° NE visible
12 Mar 12.3 00:25:57 12° NNE 00:25:57 12° NNE 00:26:25 10° NE visible
12 Mar 11.7 02:06:32 21° N 02:06:32 21° N 02:09:31 10° NNE visible
12 Mar 12.0 03:47:31 10° NW 03:50:34 15° N 03:53:37 10° NE visible
12 Mar 11.7 05:31:41 10° NNW 05:35:53 22° NNE 05:40:05 10° ENE visible
13 Mar 11.8 01:34:45 21° N 01:34:45 21° N 01:37:11 10° NNE visible
13 Mar 11.9 03:15:20 12° NW 03:17:49 15° N 03:20:55 10° NNE visible
13 Mar 11.8 04:59:20 10° NNW 05:03:14 20° NNE 05:07:08 10° ENE visible
14 Mar 11.9 01:02:57 19° NNE 01:02:57 19° NNE 01:04:52 10° NNE visible
14 Mar 11.9 02:43:31 14° NNW 02:45:05 16° N 02:48:20 10° NNE visible
14 Mar 12.0 04:26:55 10° NNW 04:30:33 18° NNE 04:34:09 10° ENE visible
15 Mar 12.0 00:31:06 18° NNE 00:31:06 18° NNE 00:32:34 10° NNE visible
15 Mar 11.8 02:11:41 17° NNW 02:12:21 17° NNW 02:15:50 10° NNE visible
15 Mar 12.0 03:54:28 10° NNW 03:57:50 16° NNE 04:01:11 10° NE visible
15 Mar 11.2 05:37:49 10° NNW 05:42:46 34° NE 05:47:40 10° ESE visible
15 Mar 12.1 23:59:13 15° NNE 23:59:13 15° NNE 00:00:15 10° NNE visible
16 Mar 11.8 01:39:47 19° NNW 01:39:47 19° NNW 01:43:25 10° NNE visible
16 Mar 12.1 03:21:55 10° NNW 03:25:06 15° N 03:28:16 10° NE visible
16 Mar 11.4 05:05:31 10° NNW 05:10:12 28° NNE 05:14:52 10° E visible
16 Mar 12.1 23:27:17 13° NNE 23:27:17 13° NNE 23:27:55 10° NNE visible
17 Mar 11.8 01:07:52 20° N 01:07:52 20° N 01:11:02 10° NNE visible
17 Mar 12.1 02:49:17 10° NNW 02:52:21 15° N 02:55:25 10° NE visible
17 Mar 11.7 04:33:11 10° NNW 04:37:35 24° NNE 04:41:59 10° E visible
17 Mar 12.2 22:55:17 12° NE 22:55:17 12° NE 22:55:35 10° NE visible
18 Mar 11.8 00:35:51 21° N 00:35:51 21° N 00:38:41 10° NNE visible
18 Mar 12.2 02:16:33 10° NW 02:19:36 15° N 02:22:39 10° NNE visible
18 Mar 11.9 04:00:51 10° NNW 04:04:57 21° NNE 04:09:03 10° ENE visible
18 Mar 10.2 05:43:57 10° NNW 05:49:20 61° NE 05:54:41 10° SE visible
18 Mar 12.2 22:23:10 10° NE 22:23:10 10° NE 22:23:13 10° NE visible
